GFSGBSN_prec_precacc24_105.txt.gz
Total_Precipitation_Accumulation
0.01 0.01 0.01 0.01 0.00 0.00 0.00 0.00 0.00 0.00 0.00 0.00 0.00 0.00 0.00 0.00 0.00 0.00 0.00 0.00 0.00 0.00 0.00 0.00 0.00 0.00 0.00 0.00 0.00 0.00 0.00 0.00 0.00 0.00 0.00 0.00 0.00 0.00 0.00 0.00 0.00 0.00 0.00 0.00 0.00 0.00 0.00
0.04 0.03 0.04 0.03 0.03 0.02 0.02 0.01 0.00 0.00 0.00 0.00 0.00 0.00 0.00 0.00 0.00 0.00 0.00 0.00 0.00 0.00 0.00 0.00 0.00 0.00 0.00 0.00 0.00 0.00 0.00 0.00 0.00 0.00 0.00 0.00 0.00 0.00 0.00 0.00 0.00 0.00 0.00 0.00 0.00 0.00 0.00
0.13 0.12 0.13 0.12 0.10 0.07 0.06 0.03 0.02 0.01 0.00 0.00 0.00 0.00 0.00 0.00 0.00 0.00 0.00 0.00 0.00 0.00 0.00 0.00 0.00 0.00 0.00 0.00 0.00 0.00 0.00 0.00 0.00 0.00 0.00 0.00 0.00 0.00 0.00 0.00 0.00 0.00 0.00 0.00 0.00 0.00 0.00
0.33 0.26 0.22 0.21 0.16 0.10 0.07 0.05 0.03 0.01 0.00 0.00 0.00 0.00 0.00 0.00 0.00 0.00 0.00 0.00 0.00 0.00 0.00 0.00 0.00 0.00 0.00 0.00 0.00 0.00 0.00 0.00 0.00 0.00 0.00 0.00 0.00 0.00 0.00 0.00 0.00 0.00 0.00 0.00 0.00 0.00 0.00
0.31 0.27 0.25 0.26 0.21 0.16 0.13 0.09 0.05 0.01 0.00 0.00 0.00 0.00 0.00 0.00 0.00 0.00 0.00 0.00 0.00 0.00 0.00 0.00 0.00 0.00 0.00 0.00 0.00 0.00 0.00 0.00 0.00 0.00 0.00 0.00 0.00 0.00 0.00 0.00 0.00 0.00 0.00 0.00 0.00 0.00 0.00
0.36 0.29 0.26 0.23 0.18 0.11 0.07 0.06 0.05 0.03 0.02 0.01 0.00 0.00 0.00 0.00 0.00 0.00 0.00 0.00 0.00 0.00 0.00 0.00 0.00 0.00 0.00 0.00 0.00 0.00 0.00 0.00 0.00 0.00 0.00 0.00 0.00 0.00 0.00 0.00 0.00 0.00 0.00 0.00 0.00 0.00 0.00
0.38 0.32 0.22 0.18 0.13 0.10 0.08 0.08 0.06 0.04 0.03 0.01 0.00 0.00 0.00 0.00 0.00 0.00 0.00 0.00 0.00 0.00 0.00 0.00 0.00 0.00 0.00 0.00 0.00 0.00 0.00 0.00 0.00 0.00 0.00 0.00 0.00 0.00 0.00 0.00 0.00 0.00 0.00 0.00 0.00 0.00 0.00
0.37 0.35 0.31 0.29 0.24 0.20 0.18 0.15 0.12 0.10 0.08 0.05 0.02 0.00 0.00 0.00 0.00 0.00 0.00 0.00 0.00 0.00 0.00 0.00 0.00 0.00 0.00 0.00 0.00 0.00 0.00 0.00 0.00 0.00 0.00 0.00 0.00 0.00 0.00 0.00 0.00 0.00 0.00 0.00 0.00 0.00 0.00
0.37 0.33 0.25 0.22 0.18 0.14 0.12 0.11 0.09 0.08 0.08 0.05 0.02 0.00 0.00 0.00 0.00 0.00 0.00 0.00 0.00 0.00 0.00 0.00 0.00 0.00 0.00 0.00 0.00 0.00 0.00 0.00 0.00 0.00 0.00 0.00 0.00 0.00 0.00 0.00 0.00 0.00 0.00 0.00 0.00 0.00 0.00
0.31 0.30 0.30 0.31 0.26 0.19 0.15 0.11 0.07 0.05 0.05 0.02 0.01 0.00 0.00 0.00 0.00 0.00 0.00 0.00 0.00 0.00 0.00 0.00 0.00 0.00 0.00 0.00 0.00 0.00 0.00 0.00 0.00 0.00 0.00 0.00 0.00 0.00 0.00 0.00 0.00 0.00 0.00 0.00 0.00 0.00 0.00
0.32 0.31 0.29 0.28 0.24 0.20 0.18 0.18 0.14 0.09 0.06 0.03 0.01 0.00 0.00 0.00 0.00 0.00 0.00 0.00 0.00 0.00 0.00 0.00 0.00 0.00 0.00 0.00 0.00 0.00 0.00 0.00 0.00 0.00 0.00 0.00 0.00 0.00 0.00 0.00 0.00 0.00 0.00 0.00 0.00 0.00 0.00
0.28 0.25 0.25 0.26 0.23 0.19 0.16 0.13 0.09 0.06 0.03 0.01 0.00 0.00 0.00 0.00 0.00 0.00 0.00 0.00 0.00 0.01 0.00 0.00 0.00 0.00 0.00 0.00 0.00 0.00 0.00 0.00 0.00 0.00 0.00 0.00 0.00 0.00 0.00 0.00 0.00 0.00 0.00 0.01 0.02 0.03 0.04
0.32 0.26 0.23 0.23 0.18 0.14 0.12 0.09 0.05 0.04 0.03 0.01 0.00 0.00 0.00 0.00 0.00 0.00 0.00 0.00 0.00 0.00 0.00 0.00 0.00 0.00 0.00 0.00 0.00 0.00 0.00 0.00 0.00 0.02 0.02 0.01 0.00 0.00 0.00 0.01 0.01 0.01 0.05 0.12 0.13 0.06 0.03
0.39 0.32 0.27 0.24 0.18 0.14 0.11 0.06 0.02 0.01 0.01 0.00 0.00 0.00 0.00 0.00 0.00 0.00 0.00 0.00 0.00 0.00 0.00 0.00 0.00 0.00 0.00 0.01 0.01 0.01 0.02 0.00 0.00 0.02 0.08 0.05 0.03 0.01 0.05 0.03 0.03 0.02 0.10 0.15 0.11 0.08 0.04
0.50 0.47 0.39 0.26 0.17 0.15 0.12 0.06 0.03 0.03 0.01 0.00 0.00 0.00 0.00 0.00 0.00 0.00 0.00 0.00 0.00 0.00 0.00 0.00 0.00 0.00 0.00 0.05 0.07 0.03 0.04 0.04 0.02 0.09 0.19 0.09 0.04 0.01 0.02 0.03 0.06 0.11 0.08 0.06 0.17 0.14 0.18
0.56 0.50 0.40 0.30 0.25 0.16 0.09 0.06 0.02 0.02 0.02 0.00 0.00 0.00 0.00 0.00 0.00 0.00 0.01 0.00 0.00 0.00 0.00 0.00 0.00 0.02 0.04 0.03 0.08 0.10 0.04 0.16 0.12 0.21 0.16 0.17 0.21 0.05 0.03 0.06 0.05 0.16 0.10 0.22 0.24 0.30 0.19
0.48 0.46 0.34 0.25 0.14 0.13 0.09 0.04 0.02 0.01 0.01 0.00 0.00 0.00 0.00 0.00 0.00 0.02 0.02 0.00 0.00 0.00 0.00 0.00 0.01 0.01 0.03 0.08 0.10 0.13 0.12 0.17 0.42 0.18 0.12 0.10 0.21 0.14 0.15 0.12 0.08 0.12 0.22 0.17 0.23 0.12 0.19
0.41 0.33 0.31 0.24 0.17 0.10 0.04 0.03 0.02 0.02 0.01 0.00 0.00 0.00 0.00 0.00 0.01 0.01 0.01 0.00 0.00 0.00 0.00 0.00 0.00 0.01 0.03 0.10 0.12 0.18 0.23 0.24 0.29 0.18 0.08 0.09 0.39 0.23 0.15 0.07 0.02 0.08 0.14 0.20 0.25 0.19 0.16
0.46 0.35 0.21 0.21 0.19 0.12 0.05 0.01 0.01 0.01 0.02 0.00 0.00 0.00 0.00 0.00 0.02 0.03 0.02 0.00 0.01 0.00 0.01 0.01 0.02 0.02 0.03 0.07 0.18 0.12 0.23 0.29 0.51 0.30 0.13 0.33 0.37 0.43 0.34 0.21 0.13 0.24 0.36 0.20 0.28 0.40 0.44
0.36 0.31 0.22 0.12 0.11 0.08 0.01 0.00 0.00 0.02 0.03 0.00 0.01 0.01 0.00 0.00 0.00 0.01 0.02 0.01 0.00 0.00 0.00 0.03 0.02 0.03 0.08 0.09 0.15 0.16 0.20 0.40 0.74 0.51 0.23 0.63 0.38 0.53 0.30 0.14 0.08 0.16 0.23 0.30 0.24 0.32 0.32
0.23 0.19 0.13 0.08 0.04 0.03 0.01 0.00 0.00 0.03 0.02 0.01 0.01 0.01 0.00 0.01 0.01 0.05 0.13 0.04 0.01 0.05 0.04 0.02 0.06 0.12 0.15 0.12 0.08 0.08 0.27 0.68 0.92 0.68 0.37 0.59 0.31 0.62 0.47 0.13 0.11 0.16 0.30 0.29 0.32 0.32 0.32
0.07 0.06 0.03 0.03 0.03 0.02 0.00 0.00 0.03 0.02 0.02 0.01 0.01 0.00 0.01 0.01 0.01 0.04 0.03 0.05 0.10 0.15 0.20 0.09 0.13 0.05 0.06 0.07 0.07 0.16 0.27 0.34 0.58 0.47 0.50 0.58 0.46 0.65 0.94 0.31 0.27 0.38 0.50 0.26 0.31 0.30 0.27
0.02 0.02 0.02 0.03 0.04 0.02 0.01 0.01 0.05 0.04 0.02 0.01 0.01 0.01 0.04 0.02 0.00 0.01 0.01 0.04 0.13 0.35 0.19 0.09 0.20 0.11 0.05 0.09 0.06 0.02 0.09 0.07 0.11 0.28 0.47 0.53 0.77 0.66 0.63 0.21 0.23 0.52 0.54 0.27 0.11 0.06 0.02
0.01 0.01 0.01 0.02 0.03 0.02 0.01 0.02 0.05 0.10 0.03 0.01 0.00 0.00 0.04 0.03 0.00 0.00 0.00 0.02 0.07 0.31 0.86 0.24 0.13 0.11 0.06 0.07 0.05 0.02 0.00 0.01 0.04 0.05 0.25 0.53 0.48 0.32 0.31 0.13 0.23 0.53 0.24 0.13 0.07 0.04 0.02
0.02 0.01 0.02 0.03 0.01 0.01 0.02 0.05 0.08 0.10 0.10 0.02 0.00 0.01 0.02 0.02 0.00 0.00 0.00 0.00 0.03 0.27 0.54 0.74 0.40 0.15 0.03 0.05 0.14 0.09 0.14 0.14 0.08 0.05 0.11 0.18 0.17 0.19 0.17 0.08 0.23 0.13 0.01 0.02 0.10 0.10 0.06
0.03 0.03 0.04 0.02 0.01 0.01 0.00 0.01 0.05 0.08 0.16 0.12 0.05 0.01 0.02 0.03 0.02 0.00 0.00 0.00 0.01 0.12 0.07 0.20 0.32 0.29 0.15 0.07 0.28 0.39 0.20 0.27 0.09 0.04 0.02 0.05 0.08 0.15 0.08 0.03 0.09 0.09 0.00 0.01 0.05 0.26 0.22
0.02 0.04 0.06 0.03 0.00 0.00 0.01 0.00 0.01 0.03 0.16 0.21 0.16 0.06 0.08 0.05 0.00 0.00 0.00 0.00 0.00 0.01 0.01 0.00 0.01 0.02 0.01 0.18 0.28 0.13 0.12 0.07 0.11 0.10 0.07 0.03 0.02 0.02 0.01 0.04 0.03 0.01 0.01 0.02 0.25 0.43 0.47
0.04 0.03 0.03 0.05 0.02 0.01 0.01 0.01 0.02 0.03 0.13 0.23 0.12 0.05 0.09 0.06 0.00 0.00 0.00 0.00 0.00 0.00 0.00 0.00 0.02 0.02 0.03 0.05 0.07 0.04 0.16 0.30 0.28 0.05 0.03 0.06 0.17 0.08 0.04 0.09 0.07 0.01 0.03 0.13 0.43 0.55 0.71
0.03 0.03 0.03 0.05 0.04 0.01 0.02 0.02 0.03 0.03 0.12 0.15 0.12 0.04 0.05 0.06 0.01 0.00 0.00 0.00 0.00 0.00 0.00 0.00 0.03 0.09 0.15 0.17 0.12 0.06 0.15 0.14 0.29 0.27 0.02 0.11 0.12 0.11 0.13 0.14 0.18 0.06 0.10 0.21 0.33 0.46 0.67

GFSGBSN_prec_precacc24_111.txt.gz
Total_Precipitation_Accumulation
0.01 0.01 0.00 0.00 0.00 0.00 0.00 0.00 0.00 0.00 0.00 0.00 0.00 0.00 0.00 0.00 0.00 0.00 0.00 0.00 0.00 0.00 0.00 0.00 0.00 0.00 0.00 0.00 0.00 0.00 0.00 0.00 0.00 0.00 0.00 0.00 0.00 0.00 0.00 0.00 0.00 0.00 0.00 0.00 0.00 0.00 0.00
0.05 0.03 0.04 0.03 0.02 0.02 0.02 0.01 0.00 0.00 0.00 0.00 0.00 0.00 0.00 0.00 0.00 0.00 0.00 0.00 0.00 0.00 0.00 0.00 0.00 0.00 0.00 0.00 0.00 0.00 0.00 0.00 0.00 0.00 0.00 0.00 0.00 0.00 0.00 0.00 0.00 0.00 0.00 0.00 0.00 0.00 0.00
0.19 0.15 0.15 0.13 0.10 0.08 0.06 0.04 0.02 0.01 0.00 0.00 0.00 0.00 0.00 0.00 0.00 0.00 0.00 0.00 0.00 0.00 0.00 0.00 0.00 0.00 0.00 0.00 0.00 0.00 0.00 0.00 0.00 0.00 0.00 0.00 0.00 0.00 0.00 0.00 0.00 0.00 0.00 0.00 0.00 0.00 0.00
0.38 0.35 0.31 0.28 0.21 0.15 0.11 0.08 0.04 0.02 0.00 0.00 0.00 0.00 0.00 0.00 0.00 0.00 0.00 0.00 0.00 0.00 0.00 0.00 0.00 0.00 0.00 0.00 0.00 0.00 0.00 0.00 0.00 0.00 0.00 0.00 0.00 0.00 0.00 0.00 0.00 0.00 0.00 0.00 0.00 0.00 0.00
0.33 0.29 0.27 0.28 0.26 0.24 0.22 0.22 0.18 0.14 0.09 0.05 0.03 0.04 0.02 0.01 0.00 0.00 0.00 0.00 0.00 0.00 0.00 0.00 0.00 0.00 0.00 0.00 0.00 0.00 0.00 0.00 0.00 0.00 0.00 0.00 0.00 0.00 0.00 0.00 0.00 0.00 0.00 0.00 0.00 0.00 0.00
0.37 0.31 0.30 0.28 0.25 0.20 0.15 0.14 0.13 0.11 0.10 0.08 0.05 0.05 0.02 0.01 0.00 0.00 0.00 0.00 0.00 0.00 0.00 0.00 0.00 0.00 0.00 0.00 0.00 0.00 0.00 0.00 0.00 0.00 0.00 0.00 0.00 0.00 0.00 0.00 0.00 0.00 0.00 0.00 0.00 0.00 0.00
0.39 0.34 0.25 0.22 0.18 0.16 0.13 0.10 0.08 0.07 0.07 0.08 0.08 0.07 0.06 0.03 0.02 0.01 0.00 0.00 0.00 0.00 0.00 0.00 0.00 0.00 0.00 0.00 0.00 0.00 0.00 0.00 0.00 0.00 0.00 0.00 0.00 0.00 0.00 0.00 0.00 0.00 0.00 0.00 0.00 0.00 0.00
0.38 0.37 0.32 0.31 0.29 0.27 0.24 0.21 0.16 0.13 0.11 0.09 0.11 0.10 0.08 0.05 0.02 0.00 0.00 0.00 0.00 0.00 0.00 0.00 0.00 0.00 0.00 0.00 0.00 0.00 0.00 0.00 0.00 0.00 0.00 0.00 0.00 0.00 0.00 0.00 0.00 0.00 0.00 0.00 0.00 0.00 0.00
0.38 0.34 0.27 0.24 0.21 0.16 0.16 0.17 0.14 0.12 0.13 0.14 0.14 0.13 0.09 0.05 0.02 0.00 0.00 0.00 0.00 0.00 0.00 0.00 0.00 0.00 0.00 0.00 0.00 0.00 0.00 0.00 0.00 0.00 0.00 0.00 0.00 0.00 0.00 0.00 0.00 0.00 0.00 0.00 0.00 0.00 0.00
0.32 0.31 0.31 0.32 0.29 0.23 0.18 0.15 0.12 0.12 0.16 0.20 0.22 0.21 0.19 0.11 0.03 0.00 0.00 0.00 0.00 0.00 0.01 0.00 0.00 0.00 0.00 0.00 0.00 0.00 0.00 0.00 0.00 0.00 0.00 0.00 0.00 0.00 0.00 0.00 0.00 0.00 0.00 0.00 0.00 0.00 0.00
0.32 0.32 0.30 0.30 0.27 0.24 0.25 0.28 0.24 0.18 0.16 0.16 0.16 0.15 0.13 0.06 0.03 0.03 0.02 0.00 0.00 0.00 0.01 0.00 0.00 0.00 0.00 0.00 0.00 0.00 0.00 0.00 0.00 0.00 0.00 0.00 0.00 0.00 0.00 0.00 0.00 0.00 0.00 0.00 0.00 0.00 0.00
0.28 0.26 0.26 0.28 0.26 0.23 0.23 0.23 0.18 0.14 0.12 0.13 0.13 0.10 0.07 0.02 0.01 0.00 0.00 0.00 0.00 0.01 0.00 0.00 0.00 0.00 0.00 0.00 0.00 0.00 0.00 0.00 0.00 0.00 0.00 0.00 0.00 0.00 0.00 0.00 0.00 0.00 0.00 0.01 0.02 0.03 0.04
0.32 0.26 0.25 0.25 0.21 0.19 0.17 0.14 0.13 0.14 0.13 0.10 0.08 0.06 0.04 0.01 0.01 0.00 0.00 0.00 0.02 0.01 0.00 0.00 0.00 0.00 0.00 0.00 0.00 0.00 0.00 0.00 0.00 0.02 0.02 0.01 0.00 0.00 0.00 0.01 0.01 0.01 0.05 0.12 0.13 0.05 0.02
0.40 0.32 0.28 0.26 0.21 0.18 0.16 0.14 0.10 0.09 0.11 0.12 0.10 0.06 0.02 0.01 0.00 0.00 0.01 0.04 0.06 0.03 0.02 0.01 0.00 0.00 0.00 0.00 0.00 0.00 0.01 0.00 0.00 0.02 0.08 0.05 0.03 0.01 0.05 0.03 0.03 0.02 0.09 0.15 0.11 0.07 0.04
0.51 0.47 0.40 0.28 0.20 0.19 0.17 0.15 0.13 0.14 0.12 0.07 0.06 0.04 0.03 0.01 0.00 0.00 0.00 0.01 0.01 0.00 0.00 0.00 0.00 0.00 0.00 0.02 0.02 0.00 0.01 0.03 0.02 0.09 0.19 0.09 0.04 0.01 0.02 0.03 0.06 0.11 0.07 0.06 0.14 0.12 0.16
0.56 0.50 0.42 0.33 0.30 0.23 0.19 0.15 0.13 0.11 0.07 0.06 0.06 0.06 0.03 0.01 0.01 0.00 0.00 0.00 0.00 0.00 0.00 0.00 0.00 0.00 0.01 0.00 0.00 0.00 0.00 0.15 0.12 0.21 0.16 0.17 0.21 0.05 0.03 0.06 0.05 0.15 0.08 0.17 0.22 0.31 0.19
0.50 0.48 0.39 0.32 0.21 0.22 0.21 0.14 0.09 0.06 0.05 0.04 0.04 0.08 0.06 0.01 0.00 0.00 0.00 0.00 0.00 0.00 0.00 0.00 0.00 0.00 0.00 0.00 0.00 0.01 0.03 0.10 0.40 0.18 0.12 0.10 0.21 0.14 0.14 0.12 0.08 0.11 0.22 0.21 0.21 0.08 0.19
0.47 0.40 0.41 0.35 0.27 0.19 0.14 0.14 0.09 0.05 0.04 0.03 0.04 0.04 0.01 0.00 0.00 0.00 0.00 0.00 0.00 0.00 0.00 0.00 0.00 0.01 0.01 0.02 0.03 0.02 0.02 0.04 0.16 0.16 0.07 0.09 0.39 0.23 0.15 0.07 0.02 0.07 0.14 0.27 0.42 0.21 0.16
0.56 0.47 0.34 0.37 0.35 0.27 0.18 0.09 0.08 0.04 0.02 0.02 0.03 0.03 0.00 0.00 0.01 0.00 0.00 0.00 0.00 0.00 0.01 0.01 0.02 0.01 0.00 0.01 0.05 0.01 0.01 0.01 0.21 0.24 0.12 0.33 0.37 0.43 0.35 0.28 0.12 0.21 0.35 0.24 0.40 0.45 0.41
0.48 0.45 0.35 0.26 0.26 0.24 0.15 0.09 0.05 0.03 0.01 0.00 0.02 0.04 0.02 0.00 0.00 0.00 0.01 0.00 0.00 0.00 0.01 0.03 0.02 0.03 0.08 0.08 0.08 0.05 0.02 0.05 0.44 0.47 0.22 0.63 0.38 0.53 0.30 0.14 0.09 0.18 0.27 0.37 0.34 0.37 0.36
0.50 0.47 0.36 0.28 0.21 0.21 0.11 0.07 0.06 0.04 0.01 0.01 0.02 0.01 0.01 0.01 0.01 0.00 0.01 0.01 0.01 0.03 0.02 0.02 0.06 0.12 0.15 0.10 0.02 0.02 0.08 0.23 0.65 0.61 0.36 0.59 0.32 0.62 0.47 0.14 0.17 0.34 0.44 0.40 0.57 0.40 0.40
0.45 0.38 0.33 0.31 0.24 0.19 0.14 0.07 0.06 0.03 0.01 0.01 0.01 0.00 0.00 0.00 0.00 0.01 0.01 0.00 0.01 0.03 0.06 0.04 0.11 0.05 0.04 0.06 0.04 0.09 0.13 0.26 0.50 0.42 0.50 0.62 0.49 0.70 0.97 0.34 0.39 0.49 0.63 0.37 0.53 0.45 0.38
0.39 0.30 0.27 0.25 0.20 0.14 0.16 0.11 0.06 0.03 0.01 0.01 0.01 0.00 0.01 0.01 0.00 0.00 0.01 0.00 0.01 0.10 0.05 0.06 0.16 0.09 0.04 0.07 0.04 0.01 0.03 0.05 0.10 0.26 0.50 0.62 0.95 0.81 0.79 0.24 0.26 0.56 0.63 0.41 0.27 0.12 0.06
0.41 0.29 0.21 0.18 0.17 0.12 0.12 0.10 0.03 0.02 0.01 0.01 0.00 0.00 0.01 0.02 0.00 0.00 0.00 0.00 0.01 0.07 0.19 0.04 0.08 0.07 0.03 0.02 0.01 0.01 0.00 0.01 0.04 0.06 0.44 0.80 0.73 0.50 0.50 0.25 0.29 0.58 0.29 0.16 0.08 0.03 0.02
0.40 0.26 0.20 0.15 0.11 0.06 0.06 0.06 0.02 0.02 0.01 0.01 0.00 0.01 0.01 0.01 0.00 0.00 0.00 0.00 0.00 0.04 0.17 0.15 0.10 0.05 0.01 0.03 0.13 0.10 0.14 0.14 0.08 0.13 0.32 0.51 0.46 0.38 0.39 0.18 0.26 0.17 0.02 0.03 0.06 0.08 0.05
0.27 0.18 0.13 0.06 0.02 0.02 0.01 0.00 0.02 0.02 0.04 0.04 0.03 0.01 0.02 0.03 0.02 0.00 0.00 0.00 0.00 0.01 0.04 0.15 0.13 0.09 0.06 0.07 0.28 0.39 0.22 0.29 0.12 0.07 0.05 0.14 0.31 0.29 0.14 0.04 0.10 0.10 0.00 0.00 0.04 0.24 0.07
0.10 0.06 0.06 0.04 0.00 0.00 0.00 0.00 0.00 0.01 0.05 0.06 0.08 0.01 0.03 0.04 0.00 0.00 0.00 0.00 0.00 0.00 0.00 0.00 0.01 0.01 0.01 0.18 0.28 0.13 0.12 0.08 0.11 0.10 0.11 0.14 0.26 0.11 0.03 0.03 0.03 0.01 0.01 0.01 0.13 0.24 0.11
0.04 0.03 0.03 0.05 0.02 0.00 0.00 0.00 0.00 0.00 0.04 0.08 0.06 0.01 0.04 0.05 0.00 0.00 0.00 0.00 0.00 0.00 0.00 0.00 0.02 0.02 0.01 0.04 0.07 0.04 0.16 0.31 0.28 0.05 0.06 0.15 0.35 0.19 0.06 0.07 0.06 0.01 0.02 0.07 0.22 0.18 0.16
0.03 0.03 0.03 0.05 0.03 0.01 0.00 0.00 0.01 0.00 0.04 0.06 0.08 0.02 0.03 0.04 0.01 0.00 0.00 0.00 0.00 0.00 0.00 0.00 0.03 0.04 0.04 0.05 0.04 0.04 0.15 0.14 0.29 0.27 0.02 0.10 0.13 0.09 0.11 0.13 0.15 0.06 0.09 0.14 0.11 0.17 0.23

GFSGBSN_prec_precacc24_114.txt.gz
Total_Precipitation_Accumulation
0.16 0.10 0.04 0.01 0.00 0.00 0.00 0.00 0.00 0.00 0.00 0.00 0.00 0.00 0.00 0.00 0.00 0.00 0.00 0.00 0.00 0.00 0.00 0.00 0.00 0.00 0.00 0.00 0.00 0.00 0.00 0.00 0.00 0.00 0.00 0.00 0.00 0.00 0.00 0.00 0.00 0.00 0.00 0.00 0.00 0.00 0.00
0.12 0.09 0.07 0.06 0.04 0.02 0.02 0.01 0.00 0.00 0.00 0.00 0.00 0.00 0.00 0.00 0.00 0.00 0.00 0.00 0.00 0.00 0.00 0.00 0.00 0.00 0.00 0.00 0.00 0.00 0.00 0.00 0.00 0.00 0.00 0.00 0.00 0.00 0.00 0.00 0.00 0.00 0.00 0.00 0.00 0.00 0.00
0.20 0.18 0.18 0.16 0.13 0.09 0.07 0.04 0.03 0.01 0.00 0.00 0.00 0.00 0.00 0.00 0.00 0.00 0.00 0.00 0.00 0.00 0.00 0.00 0.00 0.00 0.00 0.00 0.00 0.00 0.00 0.00 0.00 0.00 0.00 0.00 0.00 0.00 0.00 0.00 0.00 0.00 0.00 0.00 0.00 0.00 0.00
0.38 0.35 0.32 0.29 0.24 0.18 0.15 0.12 0.08 0.05 0.03 0.01 0.02 0.02 0.01 0.00 0.00 0.00 0.00 0.00 0.00 0.00 0.00 0.00 0.00 0.00 0.00 0.00 0.00 0.00 0.00 0.00 0.00 0.00 0.00 0.00 0.00 0.00 0.00 0.00 0.00 0.00 0.00 0.00 0.00 0.00 0.00
0.32 0.30 0.27 0.28 0.27 0.25 0.23 0.23 0.22 0.18 0.14 0.10 0.09 0.10 0.07 0.05 0.02 0.00 0.00 0.00 0.00 0.00 0.00 0.00 0.00 0.00 0.00 0.00 0.00 0.00 0.00 0.00 0.00 0.00 0.00 0.00 0.00 0.00 0.00 0.00 0.00 0.00 0.00 0.00 0.00 0.00 0.00
0.36 0.31 0.29 0.28 0.25 0.20 0.15 0.14 0.14 0.14 0.16 0.18 0.15 0.13 0.10 0.07 0.02 0.00 0.00 0.00 0.00 0.00 0.00 0.00 0.00 0.00 0.00 0.00 0.00 0.00 0.00 0.00 0.00 0.00 0.00 0.00 0.00 0.00 0.00 0.00 0.00 0.00 0.00 0.00 0.00 0.00 0.00
0.39 0.34 0.25 0.22 0.18 0.16 0.14 0.11 0.08 0.07 0.09 0.10 0.13 0.15 0.14 0.11 0.05 0.02 0.00 0.00 0.00 0.00 0.00 0.00 0.00 0.00 0.00 0.00 0.00 0.00 0.00 0.00 0.00 0.00 0.00 0.00 0.00 0.00 0.00 0.00 0.00 0.00 0.00 0.00 0.00 0.00 0.00
0.39 0.38 0.33 0.32 0.29 0.27 0.25 0.22 0.17 0.14 0.12 0.10 0.12 0.14 0.11 0.07 0.03 0.01 0.00 0.00 0.00 0.00 0.00 0.00 0.00 0.00 0.00 0.00 0.00 0.00 0.00 0.00 0.00 0.00 0.00 0.00 0.00 0.00 0.00 0.00 0.00 0.00 0.00 0.00 0.00 0.00 0.00
0.38 0.35 0.28 0.25 0.22 0.18 0.17 0.19 0.16 0.14 0.13 0.15 0.16 0.16 0.11 0.06 0.02 0.00 0.00 0.00 0.00 0.00 0.00 0.00 0.00 0.00 0.00 0.00 0.00 0.00 0.00 0.00 0.00 0.00 0.00 0.00 0.00 0.00 0.00 0.00 0.00 0.00 0.00 0.00 0.00 0.00 0.00
0.31 0.31 0.31 0.32 0.29 0.23 0.19 0.16 0.14 0.14 0.17 0.22 0.26 0.26 0.20 0.12 0.03 0.00 0.00 0.00 0.00 0.00 0.02 0.00 0.00 0.00 0.00 0.00 0.00 0.00 0.00 0.00 0.00 0.00 0.00 0.00 0.00 0.00 0.00 0.00 0.00 0.00 0.00 0.00 0.00 0.00 0.00
0.31 0.32 0.30 0.30 0.27 0.24 0.25 0.29 0.27 0.23 0.19 0.19 0.21 0.19 0.14 0.07 0.03 0.03 0.02 0.01 0.00 0.01 0.06 0.00 0.00 0.00 0.00 0.00 0.00 0.00 0.00 0.00 0.00 0.00 0.00 0.00 0.00 0.00 0.00 0.00 0.00 0.00 0.00 0.00 0.00 0.00 0.00
0.27 0.25 0.26 0.28 0.26 0.24 0.23 0.23 0.19 0.17 0.15 0.16 0.17 0.13 0.10 0.03 0.01 0.01 0.01 0.01 0.00 0.02 0.01 0.00 0.00 0.00 0.00 0.00 0.00 0.00 0.00 0.00 0.00 0.00 0.00 0.00 0.00 0.00 0.00 0.00 0.00 0.00 0.00 0.01 0.02 0.03 0.04
0.32 0.27 0.25 0.25 0.21 0.19 0.17 0.15 0.14 0.17 0.17 0.14 0.12 0.10 0.06 0.03 0.03 0.00 0.00 0.01 0.04 0.02 0.00 0.00 0.00 0.00 0.00 0.00 0.00 0.00 0.00 0.00 0.00 0.02 0.02 0.00 0.00 0.00 0.00 0.01 0.01 0.01 0.05 0.12 0.13 0.05 0.02
0.40 0.33 0.29 0.27 0.21 0.18 0.16 0.14 0.12 0.16 0.23 0.18 0.15 0.10 0.06 0.03 0.02 0.02 0.03 0.07 0.09 0.03 0.02 0.01 0.00 0.00 0.00 0.00 0.00 0.00 0.00 0.00 0.00 0.02 0.08 0.05 0.03 0.01 0.05 0.03 0.03 0.02 0.09 0.15 0.11 0.07 0.04
0.51 0.47 0.41 0.28 0.20 0.19 0.17 0.16 0.15 0.23 0.29 0.18 0.14 0.08 0.06 0.02 0.01 0.00 0.02 0.04 0.01 0.00 0.00 0.00 0.00 0.00 0.00 0.02 0.02 0.00 0.00 0.00 0.02 0.09 0.19 0.09 0.04 0.01 0.02 0.03 0.06 0.11 0.07 0.06 0.14 0.12 0.16
0.56 0.50 0.42 0.34 0.31 0.23 0.19 0.16 0.20 0.22 0.16 0.11 0.07 0.09 0.08 0.04 0.02 0.01 0.03 0.01 0.00 0.00 0.00 0.00 0.00 0.00 0.00 0.00 0.00 0.00 0.00 0.03 0.05 0.20 0.16 0.16 0.20 0.04 0.03 0.06 0.05 0.15 0.07 0.17 0.22 0.30 0.19
0.50 0.47 0.39 0.32 0.21 0.23 0.22 0.17 0.18 0.15 0.09 0.08 0.08 0.16 0.10 0.03 0.03 0.05 0.04 0.00 0.00 0.00 0.00 0.00 0.00 0.00 0.00 0.00 0.00 0.01 0.02 0.02 0.14 0.16 0.11 0.07 0.17 0.10 0.09 0.09 0.07 0.11 0.21 0.21 0.21 0.08 0.19
0.47 0.40 0.41 0.35 0.28 0.20 0.15 0.20 0.17 0.11 0.08 0.13 0.09 0.15 0.09 0.04 0.08 0.05 0.00 0.00 0.00 0.00 0.00 0.00 0.00 0.01 0.01 0.02 0.02 0.01 0.01 0.02 0.09 0.08 0.03 0.07 0.35 0.18 0.12 0.05 0.02 0.07 0.13 0.28 0.43 0.22 0.18
0.56 0.47 0.35 0.37 0.35 0.27 0.20 0.17 0.15 0.07 0.05 0.06 0.11 0.18 0.13 0.07 0.06 0.01 0.00 0.00 0.00 0.00 0.01 0.01 0.01 0.01 0.00 0.01 0.04 0.01 0.00 0.00 0.03 0.06 0.05 0.29 0.33 0.41 0.33 0.29 0.13 0.22 0.35 0.24 0.42 0.48 0.42
0.48 0.46 0.36 0.26 0.26 0.24 0.18 0.16 0.10 0.05 0.03 0.04 0.07 0.16 0.18 0.09 0.01 0.00 0.01 0.00 0.00 0.00 0.01 0.02 0.02 0.03 0.08 0.07 0.07 0.04 0.01 0.01 0.08 0.13 0.14 0.61 0.36 0.53 0.30 0.14 0.09 0.18 0.28 0.38 0.36 0.40 0.36
0.50 0.47 0.36 0.28 0.21 0.23 0.14 0.13 0.09 0.06 0.05 0.05 0.05 0.04 0.04 0.05 0.01 0.00 0.00 0.00 0.01 0.01 0.02 0.01 0.04 0.10 0.13 0.09 0.02 0.01 0.03 0.06 0.20 0.30 0.32 0.59 0.32 0.62 0.47 0.14 0.17 0.34 0.44 0.41 0.58 0.41 0.43
0.46 0.39 0.35 0.33 0.26 0.23 0.19 0.12 0.08 0.07 0.07 0.05 0.03 0.00 0.00 0.00 0.00 0.01 0.01 0.00 0.01 0.01 0.02 0.02 0.06 0.03 0.02 0.03 0.04 0.04 0.04 0.09 0.29 0.28 0.43 0.62 0.49 0.70 0.97 0.34 0.40 0.50 0.64 0.40 0.56 0.49 0.43
0.42 0.32 0.31 0.31 0.27 0.21 0.21 0.15 0.10 0.07 0.06 0.05 0.02 0.00 0.01 0.01 0.00 0.00 0.01 0.00 0.00 0.04 0.02 0.03 0.07 0.05 0.04 0.06 0.03 0.00 0.01 0.01 0.08 0.21 0.47 0.63 0.96 0.82 0.80 0.24 0.27 0.58 0.65 0.45 0.32 0.16 0.11
0.47 0.35 0.29 0.27 0.25 0.21 0.22 0.21 0.11 0.06 0.04 0.02 0.00 0.00 0.01 0.02 0.00 0.00 0.00 0.00 0.00 0.01 0.06 0.01 0.04 0.04 0.02 0.00 0.00 0.00 0.00 0.01 0.04 0.06 0.41 0.81 0.76 0.51 0.51 0.30 0.33 0.60 0.32 0.17 0.10 0.06 0.04
0.51 0.39 0.31 0.26 0.23 0.21 0.23 0.20 0.12 0.05 0.02 0.02 0.00 0.01 0.01 0.01 0.00 0.01 0.00 0.00 0.00 0.01 0.03 0.03 0.03 0.02 0.00 0.02 0.09 0.08 0.14 0.15 0.09 0.14 0.35 0.56 0.50 0.40 0.42 0.20 0.28 0.19 0.03 0.04 0.07 0.09 0.05
0.47 0.39 0.30 0.25 0.23 0.21 0.20 0.16 0.09 0.02 0.02 0.04 0.03 0.00 0.01 0.03 0.03 0.00 0.00 0.00 0.00 0.00 0.01 0.05 0.03 0.01 0.00 0.05 0.27 0.39 0.23 0.29 0.13 0.09 0.08 0.19 0.35 0.32 0.16 0.05 0.10 0.10 0.00 0.00 0.03 0.22 0.07
0.36 0.33 0.24 0.22 0.21 0.17 0.18 0.11 0.06 0.02 0.02 0.05 0.08 0.01 0.02 0.02 0.00 0.00 0.00 0.00 0.00 0.00 0.00 0.00 0.00 0.00 0.01 0.16 0.27 0.13 0.12 0.08 0.11 0.10 0.12 0.17 0.31 0.15 0.06 0.04 0.03 0.01 0.01 0.01 0.10 0.21 0.08
0.25 0.22 0.16 0.20 0.18 0.12 0.12 0.04 0.01 0.00 0.01 0.06 0.06 0.01 0.02 0.03 0.00 0.00 0.00 0.00 0.00 0.00 0.00 0.00 0.02 0.01 0.00 0.03 0.05 0.04 0.15 0.31 0.28 0.05 0.07 0.17 0.36 0.20 0.07 0.07 0.05 0.01 0.02 0.07 0.16 0.13 0.08
0.13 0.10 0.08 0.11 0.09 0.03 0.01 0.00 0.00 0.00 0.01 0.04 0.08 0.02 0.01 0.02 0.00 0.00 0.00 0.00 0.00 0.00 0.00 0.00 0.02 0.03 0.03 0.03 0.03 0.03 0.14 0.13 0.29 0.25 0.01 0.11 0.15 0.09 0.07 0.10 0.13 0.06 0.08 0.12 0.05 0.07 0.12

GFSGBSN_prec_precacc24_117.txt.gz
Total_Precipitation_Accumulation
0.26 0.24 0.20 0.16 0.12 0.06 0.02 0.02 0.01 0.00 0.00 0.00 0.00 0.00 0.00 0.00 0.00 0.00 0.00 0.00 0.00 0.00 0.00 0.00 0.00 0.00 0.00 0.00 0.00 0.00 0.00 0.00 0.00 0.00 0.00 0.00 0.00 0.00 0.00 0.00 0.00 0.00 0.00 0.00 0.00 0.00 0.00
0.15 0.18 0.18 0.18 0.23 0.26 0.16 0.09 0.06 0.02 0.00 0.00 0.00 0.00 0.00 0.00 0.00 0.00 0.00 0.00 0.00 0.00 0.00 0.00 0.00 0.00 0.00 0.00 0.00 0.00 0.00 0.00 0.00 0.00 0.00 0.00 0.00 0.00 0.00 0.00 0.00 0.00 0.00 0.00 0.00 0.00 0.00
0.20 0.19 0.20 0.18 0.15 0.15 0.15 0.13 0.09 0.06 0.04 0.02 0.01 0.01 0.00 0.00 0.00 0.00 0.00 0.00 0.00 0.00 0.00 0.00 0.00 0.00 0.00 0.00 0.00 0.00 0.00 0.00 0.00 0.00 0.00 0.00 0.00 0.00 0.00 0.00 0.00 0.00 0.00 0.00 0.00 0.00 0.00
0.37 0.35 0.32 0.29 0.24 0.18 0.15 0.14 0.13 0.11 0.09 0.07 0.07 0.07 0.04 0.02 0.02 0.00 0.00 0.00 0.00 0.00 0.00 0.00 0.00 0.00 0.00 0.00 0.00 0.00 0.00 0.00 0.00 0.00 0.00 0.00 0.00 0.00 0.00 0.00 0.00 0.00 0.00 0.00 0.00 0.00 0.00
0.31 0.29 0.27 0.28 0.27 0.25 0.23 0.23 0.23 0.22 0.20 0.15 0.14 0.16 0.15 0.12 0.06 0.01 0.00 0.00 0.00 0.00 0.00 0.00 0.00 0.00 0.00 0.00 0.00 0.00 0.00 0.00 0.00 0.00 0.00 0.00 0.00 0.00 0.00 0.00 0.00 0.00 0.00 0.00 0.00 0.00 0.00
0.31 0.28 0.29 0.28 0.25 0.21 0.16 0.14 0.14 0.14 0.17 0.18 0.17 0.18 0.18 0.16 0.09 0.03 0.00 0.00 0.00 0.00 0.00 0.00 0.00 0.00 0.00 0.00 0.00 0.00 0.00 0.00 0.00 0.00 0.00 0.00 0.00 0.00 0.00 0.00 0.00 0.00 0.00 0.00 0.00 0.00 0.00
0.31 0.31 0.25 0.22 0.18 0.16 0.14 0.11 0.09 0.07 0.09 0.11 0.14 0.17 0.17 0.16 0.11 0.04 0.02 0.00 0.00 0.00 0.00 0.00 0.00 0.00 0.00 0.00 0.00 0.00 0.00 0.00 0.00 0.00 0.00 0.00 0.00 0.00 0.00 0.00 0.00 0.00 0.00 0.00 0.00 0.00 0.00
0.33 0.34 0.32 0.32 0.30 0.28 0.25 0.22 0.18 0.15 0.12 0.11 0.14 0.16 0.14 0.09 0.05 0.03 0.02 0.00 0.00 0.00 0.00 0.00 0.00 0.00 0.00 0.00 0.00 0.00 0.00 0.00 0.00 0.00 0.00 0.00 0.00 0.00 0.00 0.00 0.00 0.00 0.00 0.00 0.00 0.00 0.00
0.34 0.34 0.27 0.25 0.22 0.18 0.17 0.20 0.17 0.15 0.14 0.15 0.16 0.20 0.14 0.08 0.03 0.01 0.00 0.00 0.00 0.00 0.00 0.00 0.00 0.00 0.00 0.00 0.00 0.00 0.00 0.00 0.00 0.00 0.00 0.00 0.00 0.00 0.00 0.00 0.00 0.00 0.00 0.00 0.00 0.00 0.00
0.30 0.31 0.31 0.32 0.29 0.23 0.19 0.16 0.14 0.15 0.19 0.23 0.28 0.30 0.22 0.15 0.06 0.00 0.00 0.00 0.00 0.00 0.02 0.00 0.00 0.00 0.00 0.00 0.00 0.00 0.00 0.00 0.00 0.00 0.00 0.00 0.00 0.00 0.00 0.00 0.00 0.00 0.00 0.00 0.00 0.00 0.00
0.29 0.31 0.30 0.30 0.27 0.24 0.25 0.29 0.27 0.23 0.20 0.21 0.24 0.22 0.16 0.08 0.03 0.03 0.02 0.01 0.00 0.01 0.07 0.00 0.00 0.00 0.00 0.00 0.00 0.00 0.00 0.00 0.00 0.00 0.00 0.00 0.00 0.00 0.00 0.00 0.00 0.00 0.00 0.00 0.00 0.00 0.00
0.25 0.25 0.26 0.28 0.26 0.24 0.23 0.23 0.19 0.17 0.16 0.17 0.19 0.14 0.12 0.05 0.01 0.01 0.01 0.01 0.00 0.03 0.03 0.00 0.00 0.00 0.00 0.00 0.00 0.00 0.00 0.00 0.00 0.00 0.00 0.00 0.00 0.00 0.00 0.00 0.00 0.00 0.00 0.01 0.02 0.03 0.04
0.30 0.26 0.24 0.24 0.21 0.19 0.17 0.15 0.14 0.17 0.19 0.16 0.14 0.11 0.06 0.03 0.04 0.01 0.00 0.01 0.05 0.04 0.00 0.00 0.00 0.00 0.00 0.00 0.00 0.00 0.00 0.00 0.00 0.01 0.01 0.00 0.00 0.00 0.00 0.01 0.01 0.01 0.04 0.11 0.13 0.05 0.02
0.38 0.32 0.28 0.26 0.21 0.17 0.16 0.14 0.12 0.17 0.26 0.28 0.20 0.13 0.08 0.04 0.03 0.03 0.04 0.09 0.13 0.03 0.02 0.01 0.00 0.00 0.00 0.00 0.00 0.00 0.00 0.00 0.00 0.02 0.07 0.04 0.03 0.00 0.04 0.03 0.03 0.02 0.09 0.14 0.10 0.07 0.04
0.51 0.47 0.41 0.28 0.19 0.19 0.17 0.16 0.15 0.23 0.35 0.37 0.31 0.19 0.07 0.06 0.04 0.02 0.05 0.12 0.03 0.00 0.00 0.00 0.00 0.00 0.00 0.00 0.00 0.00 0.00 0.00 0.01 0.08 0.14 0.08 0.03 0.00 0.02 0.03 0.06 0.10 0.07 0.06 0.13 0.11 0.16
0.57 0.49 0.43 0.34 0.30 0.24 0.19 0.16 0.20 0.24 0.24 0.20 0.17 0.22 0.16 0.07 0.04 0.06 0.11 0.05 0.00 0.00 0.00 0.00 0.00 0.00 0.00 0.00 0.00 0.00 0.00 0.01 0.02 0.04 0.08 0.12 0.18 0.02 0.03 0.06 0.05 0.14 0.07 0.15 0.21 0.30 0.18
0.50 0.47 0.39 0.33 0.21 0.23 0.22 0.17 0.19 0.18 0.11 0.13 0.19 0.34 0.23 0.08 0.12 0.18 0.09 0.00 0.00 0.00 0.00 0.00 0.00 0.00 0.00 0.00 0.00 0.01 0.02 0.00 0.02 0.04 0.04 0.02 0.10 0.05 0.07 0.09 0.07 0.10 0.17 0.18 0.19 0.08 0.19
0.47 0.40 0.41 0.35 0.28 0.20 0.16 0.20 0.18 0.15 0.12 0.19 0.18 0.36 0.23 0.10 0.17 0.14 0.01 0.00 0.00 0.00 0.00 0.00 0.00 0.00 0.01 0.01 0.01 0.01 0.00 0.01 0.02 0.01 0.01 0.04 0.23 0.11 0.08 0.03 0.01 0.06 0.12 0.27 0.42 0.22 0.22
0.57 0.48 0.35 0.38 0.35 0.27 0.20 0.17 0.18 0.13 0.08 0.08 0.22 0.37 0.32 0.15 0.13 0.02 0.00 0.00 0.00 0.00 0.00 0.00 0.00 0.00 0.00 0.00 0.03 0.01 0.00 0.00 0.02 0.00 0.01 0.10 0.12 0.26 0.18 0.24 0.09 0.18 0.32 0.22 0.42 0.49 0.43
0.49 0.47 0.37 0.27 0.27 0.24 0.18 0.16 0.15 0.11 0.05 0.05 0.15 0.35 0.43 0.24 0.05 0.00 0.01 0.00 0.00 0.00 0.00 0.00 0.00 0.01 0.04 0.05 0.07 0.04 0.01 0.01 0.01 0.01 0.06 0.42 0.23 0.47 0.26 0.16 0.11 0.16 0.26 0.37 0.37 0.41 0.37
0.51 0.48 0.37 0.29 0.23 0.22 0.15 0.14 0.15 0.12 0.07 0.07 0.11 0.09 0.11 0.11 0.02 0.00 0.00 0.00 0.00 0.01 0.00 0.00 0.01 0.04 0.05 0.04 0.02 0.00 0.00 0.01 0.01 0.03 0.15 0.46 0.28 0.62 0.47 0.13 0.17 0.34 0.44 0.41 0.58 0.41 0.46
0.48 0.41 0.37 0.34 0.27 0.23 0.19 0.14 0.13 0.11 0.10 0.08 0.07 0.02 0.00 0.00 0.00 0.00 0.01 0.00 0.00 0.01 0.01 0.01 0.02 0.01 0.01 0.02 0.03 0.02 0.01 0.03 0.05 0.07 0.21 0.52 0.48 0.71 0.97 0.34 0.40 0.51 0.65 0.41 0.58 0.50 0.46
0.43 0.34 0.34 0.32 0.28 0.23 0.22 0.17 0.15 0.11 0.10 0.10 0.04 0.00 0.01 0.01 0.00 0.00 0.01 0.00 0.00 0.01 0.01 0.01 0.01 0.02 0.02 0.04 0.02 0.00 0.01 0.01 0.02 0.08 0.31 0.62 0.98 0.84 0.82 0.25 0.28 0.61 0.66 0.47 0.36 0.18 0.14
0.48 0.37 0.31 0.30 0.27 0.23 0.24 0.24 0.16 0.11 0.06 0.03 0.01 0.00 0.01 0.02 0.00 0.00 0.00 0.00 0.00 0.00 0.01 0.00 0.01 0.02 0.00 0.00 0.00 0.00 0.00 0.00 0.01 0.04 0.37 0.80 0.79 0.54 0.54 0.31 0.36 0.61 0.33 0.19 0.13 0.07 0.05
0.54 0.42 0.33 0.28 0.26 0.24 0.27 0.26 0.19 0.12 0.06 0.02 0.00 0.00 0.01 0.02 0.01 0.01 0.00 0.00 0.00 0.00 0.00 0.00 0.00 0.01 0.00 0.01 0.03 0.06 0.14 0.13 0.06 0.12 0.34 0.55 0.52 0.45 0.45 0.23 0.30 0.18 0.04 0.05 0.10 0.10 0.05
0.51 0.45 0.32 0.27 0.27 0.27 0.29 0.25 0.20 0.11 0.08 0.03 0.03 0.01 0.00 0.03 0.05 0.00 0.00 0.00 0.00 0.00 0.00 0.00 0.00 0.00 0.00 0.04 0.23 0.37 0.25 0.30 0.15 0.09 0.09 0.21 0.37 0.38 0.19 0.10 0.13 0.09 0.00 0.00 0.02 0.13 0.06
0.41 0.38 0.30 0.30 0.32 0.28 0.30 0.23 0.17 0.09 0.06 0.04 0.09 0.03 0.03 0.03 0.01 0.00 0.00 0.00 0.00 0.00 0.00 0.00 0.00 0.00 0.01 0.10 0.23 0.13 0.15 0.09 0.14 0.12 0.14 0.21 0.35 0.18 0.07 0.08 0.04 0.01 0.01 0.01 0.09 0.19 0.07
0.33 0.29 0.26 0.32 0.31 0.29 0.28 0.16 0.12 0.07 0.03 0.04 0.06 0.03 0.03 0.03 0.01 0.00 0.00 0.00 0.00 0.00 0.00 0.00 0.01 0.01 0.00 0.02 0.05 0.05 0.15 0.31 0.27 0.03 0.06 0.16 0.34 0.20 0.09 0.10 0.06 0.01 0.02 0.07 0.14 0.10 0.05
0.31 0.26 0.28 0.34 0.28 0.24 0.18 0.10 0.07 0.05 0.04 0.04 0.07 0.03 0.01 0.01 0.00 0.00 0.00 0.00 0.00 0.00 0.00 0.00 0.02 0.02 0.01 0.03 0.04 0.03 0.12 0.10 0.26 0.18 0.01 0.10 0.15 0.10 0.07 0.09 0.11 0.05 0.08 0.10 0.04 0.05 0.06